This demonstration page uses our WeatherBlox Daily Observations layout. Learn more.

38.88101, -77.10428

Hourly Observations for January 23, 2016

Temp ( °F °C ) Dew Point ( °F °C ) Humidity (%) Winds ( mph kmh ) Pressure ( in mb ) Visibility ( mi km ) Precip ( " mm )
12:16 am 00:16 Cloudy with Light Snow 25 -4 21 -6 86 86 undefined N/A 29.8 1009 1 1.609344 0.02 0.508
12:19 am 00:19 Windy with Snow Likely 25 -4 21 -6 86 86 NNE 22 35 29.8 1009 1 1.609344 0.02 0.508
12:30 am 00:30 Mostly Cloudy with Scattered Snow Showers 25 -4 21 -6 86 86 NNE 20 31 29.8 1009 0.75 1.207008 0 0
12:45 am 00:45 Mostly Cloudy with Snow 25 -4 21 -6 86 86 NNE 20 31 29.8 1009 0.5 0.804672 0.05 1.27
12:52 am 00:52 Mostly Cloudy with Heavy Snow 25 -4 21 -6 86 86 N 18 30 29.8 1009 0.25 0.402336 0.07 1.778
1:13 am 01:13 Mostly Cloudy with Snow 25 -4 21 -6 86 86 N 21 33 29.77 1008 0.25 0.402336 0.05 1.27
1:23 am 01:23 Mostly Cloudy with Snow 25 -4 21 -6 86 86 NNE 21 33 29.77 1008 0.25 0.402336 0.07 1.778
1:52 am 01:52 Mostly Cloudy with Snow 25 -4 21 -6 86 86 N 21 33 29.74 1007 0.25 0.402336 0.13 3.302
2:08 am 02:08 Mostly Cloudy with Snow 25 -4 21 -6 86 86 N 20 31 29.74 1007 1 1.609344 0 0
2:23 am 02:23 Mostly Cloudy with Snow 25 -4 21 -6 86 86 NNE 21 33 29.74 1007 0.5 0.804672 0.09 2.286
2:52 am 02:52 Mostly Cloudy with Snow 25 -4 21 -6 86 86 N 21 33 29.71 1006 0.25 0.402336 0.14 3.556
3:52 am 03:52 Mostly Cloudy with Snow 25 -4 21 -6 86 86 N 18 30 29.65 1004 0.25 0.402336 0.09 2.286
4:31 am 04:31 Cloudy with Snow 25 -4 21 -6 86 86 N 23 37 29.62 1003 0.75 1.207008 0.09 2.286
4:37 am 04:37 Cloudy with Snow 25 -4 21 -6 86 86 N 24 39 29.59 1002 1 1.609344 0.09 2.286
4:52 am 04:52 Windy with Snow Likely 25 -4 21 -6 86 86 N 25 41 29.59 1002 1 1.609344 0.11 2.794
5:45 am 05:45 Mostly Cloudy with Scattered Snow Showers 27 -3 23 -5 86 86 N 23 37 29.62 1003 0.75 1.207008 0.05 1.27
5:52 am 05:52 Windy with Snow Likely 27 -3 23 -5 86 86 N 21 33 29.62 1003 0.75 1.207008 0.07 1.778
6:13 am 06:13 Mostly Cloudy with Scattered Snow Showers 25 -4 23 -5 93 93 N 17 28 29.62 1003 0.25 0.402336 0.03 0.762
6:44 am 06:44 Mostly Cloudy with Scattered Snow Showers 25 -4 23 -5 93 93 N 20 31 29.62 1003 0.25 0.402336 0 0
6:52 am 06:52 Mostly Cloudy with Snow 25 -4 23 -5 93 93 N 20 31 29.62 1003 0.25 0.402336 0.09 2.286
7:19 am 07:19 Mostly Cloudy with Heavy Snow 25 -4 23 -5 93 93 N 22 35 29.62 1003 0.25 0.402336 0.02 0.508
7:52 am 07:52 Mostly Cloudy with Scattered Snow Showers 25 -4 23 -5 93 93 N 20 31 29.62 1003 0.75 1.207008 0.05 1.27
7:59 am 07:59 Mostly Cloudy with Scattered Snow Showers 25 -4 23 -5 93 93 N 20 31 29.62 1003 0.75 1.207008 0.001 0.001
8:16 am 08:16 Mostly Cloudy with Snow 27 -3 23 -5 86 86 N 24 39 29.59 1002 0.5 0.804672 0 0
8:52 am 08:52 Mostly Cloudy with Scattered Snow Showers 27 -3 23 -5 86 86 N 21 33 29.59 1002 0.75 1.207008 0.05 1.27
9:52 am 09:52 Mostly Cloudy with Snow 27 -3 25 -4 93 93 N 26 43 29.59 1002 0.5 0.804672 0.02 0.508
10:52 am 10:52 Mostly Cloudy with Scattered Snow Showers 28 -2 25 -4 86 86 N 26 43 29.59 1002 0.75 1.207008 0.01 0.254
11:05 am 11:05 Windy with Snow Likely 28 -2 25 -4 86 86 N 26 43 29.59 1002 1 1.609344 0.001 0.001
11:25 am 11:25 Windy with Snow Likely 27 -3 25 -4 93 93 N 29 46 29.59 1002 0.75 1.207008 0.001 0.001
11:35 am 11:35 Windy with Snow Likely 28 -2 25 -4 86 86 N 28 44 29.59 1002 1 1.609344 0.001 0.001
11:52 am 11:52 Windy with Snow Likely 28 -2 25 -4 86 86 N 26 43 29.56 1001 1 1.609344 0.001 0.001
12:52 pm 12:52 Windy with Snow Likely 28 -2 25 -4 86 86 N 22 35 29.56 1001 1 1.609344 0.001 0.001
1:00 pm 13:00 Windy with Snow Likely 27 -3 25 -4 93 93 N 25 41 29.56 1001 0.75 1.207008 0 0
1:19 pm 13:19 Windy with Snow Likely 28 -2 25 -4 86 86 N 26 43 29.56 1001 1 1.609344 0.001 0.001
1:43 pm 13:43 Mostly Cloudy with Scattered Snow Showers 27 -3 25 -4 93 93 N 29 46 29.56 1001 0.75 1.207008 0.001 0.001
1:52 pm 13:52 Mostly Cloudy with Scattered Snow Showers 27 -3 25 -4 93 93 N 25 41 29.56 1001 0.5 0.804672 0.001 0.001
2:32 pm 14:32 Mostly Cloudy with Heavy Snow 27 -3 23 -5 86 86 N 29 46 29.56 1001 0.25 0.402336 0 0
2:52 pm 14:52 Mostly Cloudy with Heavy Snow 27 -3 25 -4 93 93 N 29 46 29.56 1001 1 1.609344 0.03 0.762
3:00 pm 15:00 Mostly Cloudy with Heavy Snow 27 -3 23 -5 86 86 N 31 50 29.56 1001 1 1.609344 0 0
3:52 pm 15:52 Mostly Cloudy with Heavy Snow 27 -3 23 -5 86 86 NNW 28 44 29.62 1003 0.25 0.402336 0.02 0.508
4:04 pm 16:04 Mostly Cloudy with Heavy Snow 27 -3 23 -5 86 86 NNW 29 46 29.62 1003 0.25 0.402336 0 0
4:26 pm 16:26 Mostly Cloudy with Heavy Snow 27 -3 23 -5 86 86 NNW 28 44 29.65 1004 0.25 0.402336 0 0
4:52 pm 16:52 Mostly Cloudy with Snow 27 -3 23 -5 86 86 NNW 26 43 29.65 1004 1 1.609344 0.02 0.508
5:18 pm 17:18 Mostly Cloudy with Snow 27 -3 25 -4 93 93 NNW 29 46 29.68 1005 1 1.609344 0 0
5:39 pm 17:39 Mostly Cloudy with Snow 27 -3 25 -4 93 93 NNW 25 41 29.68 1005 0.5 0.804672 0.03 0.762
5:52 pm 17:52 Mostly Cloudy with Snow 27 -3 25 -4 93 93 NNW 26 43 29.68 1005 0.5 0.804672 0.03 0.762
6:49 pm 18:49 Mostly Cloudy with Scattered Snow Showers 27 -3 25 -4 93 93 N 20 31 29.74 1007 1.75 2.816352 0.04 1.016
6:52 pm 18:52 Mostly Cloudy with Scattered Snow Showers 27 -3 25 -4 93 93 NNW 23 37 29.74 1007 1.75 2.816352 0.04 1.016
7:12 pm 19:12 Windy with Snow Likely 27 -3 25 -4 93 93 NNW 22 35 29.74 1007 1.75 2.816352 0 0
7:43 pm 19:43 Windy with Snow Likely 27 -3 25 -4 93 93 NNW 22 35 29.77 1008 1.5 2.414016 0.001 0.001
7:52 pm 19:52 Windy with Snow Likely 27 -3 25 -4 93 93 NNW 26 43 29.77 1008 1.5 2.414016 0.01 0.254
8:52 pm 20:52 Windy with Snow Likely 27 -3 25 -4 93 93 N 21 33 29.8 1009 1.75 2.816352 0.001 0.001
8:59 pm 20:59 Cloudy with Light Snow 28 -2 25 -4 86 86 N 18 30 29.8 1009 2.5 4.02336 0.001 0.001
9:08 pm 21:08 Windy with Snow Likely 28 -2 25 -4 86 86 N 22 35 29.8 1009 3 4.828032 0 0
9:32 pm 21:32 Windy with Snow Likely 28 -2 23 -5 80 80 N 20 31 29.8 1009 2.5 4.02336 0 0
9:52 pm 21:52 Windy with Snow Likely 28 -2 23 -5 80 80 NNW 20 31 29.8 1009 4 6.437376 0.001 0.001
9:55 pm 21:55 Cloudy with Light Snow 28 -2 23 -5 80 80 N 17 28 29.8 1009 5 8.04672 0.001 0.001
10:24 pm 22:24 Windy with Snow Likely 28 -2 25 -4 86 86 N 20 31 29.83 1010 2.5 4.02336 0 0
10:32 pm 22:32 Cloudy with Light Snow 28 -2 23 -5 80 80 N 18 30 29.83 1010 3 4.828032 0 0
10:45 pm 22:45 Windy with Snow Likely 28 -2 25 -4 86 86 NNW 21 33 29.83 1010 5 8.04672 0.001 0.001
10:52 pm 22:52 Windy with Snow Likely 28 -2 23 -5 80 80 N 20 31 29.83 1010 6 9.656064 0.001 0.001
11:52 pm 23:52 Cloudy with Light Snow 28 -2 21 -6 74 74 N 15 24 29.85 1011 9 14.484096 0.001 0.001

Powered by AerisWeather